DW6949 Weather Reports


Display with metric or nautical units.
time (UTC)temp
F
wind
direction
speed
MPH
gust
MPH
rain 1hr
in
rain 24hr
in
rain mn
in
humidity
%
barometer
mb
20260508030047 73 0 0.0 2.0 0.00 0.00 0.00 75 1014.6
20260508024553 73 151 0.0 2.0 0.00 0.00 0.00 74 1014.6
20260508023053 73 154 0.0 1.0 0.00 0.00 0.00 74 1014.7
20260508021550 73 0 0.0 1.0 0.00 0.00 0.00 73 1014.3
20260508020051 73 0 0.0 4.0 0.00 0.00 0.00 73 1014.4
20260508014550 74 150 0.0 3.0 0.00 0.00 0.00 73 1014.4
20260508013045 75 139 0.0 1.0 0.00 0.00 0.00 72 1014.4
20260508011556 75 0 0.0 1.0 0.00 0.00 0.00 71 1014.6
20260508010047 75 146 0.0 3.0 0.00 0.00 0.00 70 1014.8
20260508004554 75 153 1.0 6.0 0.00 0.00 0.00 70 1015.0
20260508003047 76 144 1.0 3.0 0.00 0.00 0.00 70 1014.5
20260508001549 76 143 0.0 1.0 0.00 0.00 0.00 72 1014.7
20260508000046 77 136 0.0 1.0 0.00 0.00 0.00 71 1014.6
20260507234545 77 143 0.0 4.0 0.00 0.00 0.00 70 1014.7
20260507233059 78 150 2.0 5.0 0.00 0.00 0.00 70 1014.7
20260507231547 79 150 1.0 3.0 0.00 0.00 0.00 67 1014.4
20260507230045 79 127 0.0 2.0 0.00 0.00 0.00 67 1014.2
20260507224557 80 140 0.0 3.0 0.00 0.00 0.00 66 1014.3
20260507223052 79 146 0.0 2.0 0.00 0.00 0.00 68 1014.1
20260507221547 79 134 0.0 3.0 0.00 0.00 0.00 68 1014.2
20260507220049 79 143 0.0 7.0 0.00 0.00 0.00 69 1014.3
20260507214543 79 137 1.0 8.0 0.00 0.00 0.00 70 1014.4
20260507213100 78 206 1.0 6.0 0.00 0.00 0.00 71 1014.5
20260507211549 77 126 3.0 7.0 0.00 0.00 0.00 69 1014.6
20260507210054 78 212 1.0 3.0 0.00 0.00 0.00 69 1014.9
20260507204551 78 146 1.0 4.0 0.00 0.00 0.00 68 1015.0
20260507203046 79 138 0.0 2.0 0.00 0.00 0.00 67 1015.1
20260507201546 77 132 1.0 8.0 0.00 0.00 0.00 70 1015.3
20260507200051 76 146 4.0 8.0 0.00 0.00 0.00 71 1015.0
20260507194615 76 146 1.0 6.0 0.00 0.00 0.00 70 1015.2
20260507193045 74 135 2.0 11.0 0.00 0.00 0.00 72 1015.7
20260507191551 73 128 3.0 11.0 0.00 0.00 0.00 74 1016.0
20260507190051 72 180 3.0 12.0 0.00 0.00 0.00 73 1016.4
20260507184551 72 146 2.0 6.0 0.00 0.00 0.00 73 1016.5
20260507183054 72 206 3.0 10.0 0.00 0.00 0.00 73 1016.4
20260507181556 73 191 2.0 6.0 0.00 0.00 0.00 72 1016.5
20260507180048 72 191 5.0 11.0 0.00 0.00 0.00 73 1016.6
20260507174559 71 214 0.0 4.0 0.00 0.00 0.00 76 1016.7
20260507173124 69 143 2.0 9.0 0.00 0.00 0.00 78 1017.1
20260507171601 68 148 3.0 7.0 0.00 0.00 0.00 78 1017.3
20260507170107 67 148 1.0 5.0 0.00 0.00 0.00 80 1017.3
20260507164554 66 168 2.0 8.0 0.00 0.00 0.00 80 1017.4
20260507163051 67 164 1.0 8.0 0.00 0.00 0.00 80 1017.3
20260507161603 67 138 0.0 2.0 0.00 0.00 0.00 79 1017.1
20260507160050 66 160 1.0 3.0 0.00 0.00 0.00 80 1016.7
20260507154550 66 147 1.0 6.0 0.00 0.00 0.00 81 1016.9
20260507153056 66 146 0.0 3.0 0.00 0.00 0.00 82 1016.9
20260507151547 65 169 3.0 8.0 0.00 0.00 0.00 82 1016.9
20260507150050 65 149 1.0 7.0 0.00 0.00 0.00 82 1017.1
20260507144556 65 136 2.0 8.0 0.00 0.00 0.00 84 1017.1
20260507143049 65 141 1.0 6.0 0.00 0.00 0.00 85 1016.7
20260507141612 65 165 2.0 8.0 0.00 0.00 0.00 85 1016.3
20260507140053 64 180 2.0 7.0 0.00 0.00 0.00 85 1016.1
20260507134559 64 150 1.0 10.0 0.00 0.00 0.00 85 1015.9
20260507133101 65 149 6.0 14.0 0.00 0.00 0.00 84 1016.3
20260507131550 65 144 3.0 12.0 0.00 0.00 0.00 85 1016.4
20260507130052 65 162 4.0 12.0 0.00 0.00 0.00 85 1016.5
20260507124549 66 155 2.0 9.0 0.00 0.00 0.00 86 1016.5
20260507123048 66 179 3.0 10.0 0.00 0.00 0.00 85 1016.4
20260507121552 66 157 3.0 7.0 0.00 0.00 0.00 85 1016.1
20260507114558 66 148 1.0 7.0 0.00 0.00 0.00 85 1015.3
20260507113051 66 155 0.0 5.0 0.00 0.00 0.00 85 1014.9
20260507111548 66 174 1.0 6.0 0.00 0.00 0.00 85 1014.3
20260507110047 66 174 3.0 5.0 0.00 0.00 0.00 85 1014.6
20260507104545 66 0 0.0 3.0 0.00 0.00 0.00 84 1014.6
20260507103049 67 149 0.0 4.0 0.00 0.00 0.00 84 1014.7
20260507101557 67 0 0.0 3.0 0.00 0.00 0.00 84 1014.3
20260507100047 67 143 1.0 6.0 0.00 0.00 0.00 84 1014.2
20260507094555 66 149 1.0 5.0 0.00 0.00 0.00 85 1014.3
20260507093049 66 152 0.0 2.0 0.00 0.00 0.00 85 1014.1
20260507091552 66 0 0.0 5.0 0.00 0.00 0.00 84 1013.6
20260507090054 66 191 3.0 7.0 0.00 0.00 0.00 84 1013.6
20260507084550 66 148 1.0 10.0 0.00 0.00 0.00 83 1014.0
20260507083045 67 151 2.0 7.0 0.00 0.00 0.00 83 1014.0
20260507081548 66 184 1.0 5.0 0.00 0.00 0.00 83 1013.8
20260507080056 67 143 0.0 4.0 0.00 0.00 0.00 83 1014.0
20260507074550 67 155 1.0 7.0 0.00 0.00 0.00 82 1013.8
20260507073107 67 160 4.0 8.0 0.00 0.00 0.00 82 1014.2
20260507071546 67 161 2.0 11.0 0.00 0.00 0.00 82 1014.1
20260507070048 68 191 3.0 12.0 0.00 0.00 0.00 82 1014.4
20260507064601 68 151 4.0 9.0 0.00 0.00 0.00 82 1014.3
20260507063052 68 217 4.0 9.0 0.00 0.00 0.00 82 1014.1
20260507061549 68 163 4.0 10.0 0.00 0.00 0.00 82 1014.4
20260507060050 68 159 1.0 6.0 0.00 0.00 0.00 83 1014.0
20260507054550 68 150 2.0 9.0 0.00 0.00 0.00 82 1014.0
20260507053050 69 184 3.0 10.0 0.00 0.00 0.00 82 1013.6
20260507051552 69 154 3.0 9.0 0.00 0.00 0.00 82 1013.7
20260507050053 69 181 4.0 9.0 0.00 0.00 0.00 81 1013.6
20260507044551 70 144 3.0 7.0 0.00 0.00 0.00 81 1013.7
20260507043049 70 150 3.0 9.0 0.00 0.00 0.00 81 1013.8
20260507041600 71 174 4.0 11.0 0.00 0.00 0.00 80 1013.8
20260507040048 71 140 4.0 11.0 0.00 0.00 0.00 80 1013.7
20260507034612 72 143 3.0 13.0 0.00 0.00 0.00 80 1013.7
20260507033104 72 225 4.0 8.0 0.00 0.00 0.00 79 1013.4
20260507031551 72 156 4.0 11.0 0.00 0.00 0.00 80 1012.8